Погода в Венюково

Россия / Хабаровский край     47°28′58″N   134°34′26″E
темп.,
°C
ветер,
м/с
пор.,
м/с
влажн.,
%
обл.,
%
осадки,
мм/ч
давл.,
гПа
погр.,
м
9 мая, вс
вс901:00+6всв71287100 0.0 997284
04:00+6всв71390100 0.0 996320
07:00+5всв71191100 0.2 998326
10:00+8всв6887100 0.4 999420
13:00+7св5894100 2.3 1000309
16:00+9св4690100 2.9 1001495
19:00+7св4794100 0.3 1002386
22:00+6св4889100 0.4 1004518
10 мая, пн
пн1001:00+4св4893100 0.0 1006438
04:00+5св4991100 0.0 1007588
07:00+5св498773 0.0 1009708
10:00+7св576745 0.0 1009981
13:00+12ссв68499 0.0 10101471
16:00+13ссв6845100 0.0 10091962
19:00+10ссз4666100 0.1 1011481
22:00+7св22776 0.1 101423
11 мая, вт
вт1101:00+5всв228142 0.0 101523
04:00+3всв228952 0.0 101639
07:00+4в24837 0.0 1017193
10:00+9ссв33625 0.0 1018728
13:00+13с234937 0.0 10171580
16:00+15ссв224482 0.0 10161925
19:00+14вюв235586 0.0 1016166
22:00+11ююв345859 0.0 101765
12 мая, ср
ср1201:00+7ю22694 0.0 101721
04:00+7ююв3372100 0.0 101739
07:00+9ююв2576100 0.0 1016152
10:00+15ю4750100 0.0 10141174
13:00+17ю61046100 0.0 10111521
16:00+16ююз71452100 0.0 10091857
19:00+12ююз81774100 1.1 10091244
22:00+10ю81488100 2.9 1009543
13 мая, чт
чт1301:00+10ю8158978 0.1 1009697
04:00+10ю8158569 0.1 1008630
07:00+10ю7138415 0.1 1009498
10:00+14ююз9116498 0.1 1008630
13:00+20юз7124484 0.0 10082413
16:00+21з811304 0.0 10073474
19:00+18з2445100 0.0 100886
22:00+13ю4547100 0.0 100852